sat.trackr.live / text

‹ back to catalog

STARLINK-11448 [DTC]

NORAD 63005 · 2025-032A

PAYLOAD ACTIVE UNKNOWN

§ Identity

Operator
Country
US
Launch date
2025-02-15
Launch site
AFETR
Launch vehicle
Mass (kg)
RCS (m²)

Purposes: comms

External: N2YO · Heavens-Above · Gunter

§ Orbital elements

Epoch: 2026-09-21T21:08:06.457056Z

Period
91.67 min
Inclination
43.0008°
Eccentricity
0.0002991
Mean motion
15.70899415 rev/d
Perigee alt
354.3 km
Apogee alt
358.3 km
Semi-major
6,734.5 km
B*
1.1490e-3
RAAN
92.4023°
Arg perigee
274.3129°
Mean anomaly
85.7397°
Rev number
9,308

§ Raw data

STARLINK-11448 [DTC]1 63005U 25032A   26264.88063029  .00150061  00000+0  11490-2 0  99912 63005  43.0008  92.4023 0002991 274.3129  85.7397 15.70899415 93088

JSON: /api/v1/satellites/63005 · /tle

For live sub-satellite position, see the globe view (requires WebGL).

§ Visibility from observer

Set your observer location to see the next 7 days of passes ≥ 10°. The values pass through the URL so the page stays shareable.

No JS? Fill the form by hand. The geolocation button needs JavaScript.